TimeMDT,TemperatureF,Dew PointF,Humidity,Sea Level PressureIn,VisibilityMPH,Wind Direction,Wind SpeedMPH,Gust SpeedMPH,PrecipitationIn,Events,Conditions,WindDirDegrees,DateUTC
12:07 AM,68.0,55.0,63,30.05,2.5,ENE,44.9,56.4,N/A,,Haze,60,2013-07-15 06:07:00
12:43 AM,66.9,55.0,66,30.06,3.0,ENE,42.6,55.2,N/A,,Haze,60,2013-07-15 06:43:00
12:51 AM,66.9,55.0,66,29.78,3.0,ENE,41.4,50.6,N/A,,Haze,60,2013-07-15 06:51:00
1:51 AM,64.9,55.0,70,29.81,4.0,NE,40.3,-,N/A,,Haze,50,2013-07-15 07:51:00
2:51 AM,63.0,54.0,72,29.82,5.0,ENE,36.8,43.7,N/A,,Haze,60,2013-07-15 08:51:00
3:51 AM,60.1,55.0,83,29.83,7.0,NE,43.7,49.5,N/A,,Overcast,50,2013-07-15 09:51:00
4:03 AM,59.0,55.9,90,30.09,7.0,NE,44.9,-,0.00,Rain,Light Rain,50,2013-07-15 10:03:00
4:51 AM,59.0,55.9,90,29.84,7.0,ENE,42.6,-,0.00,,Overcast,60,2013-07-15 10:51:00
5:42 AM,57.9,57.0,97,30.10,1.8,NE,39.1,-,0.00,Rain,Light Rain,50,2013-07-15 11:42:00
5:51 AM,57.0,57.0,100,29.86,0.2,NE,38.0,-,0.00,Fog-Rain,Light Rain,50,2013-07-15 11:51:00
6:11 AM,57.0,57.0,100,30.09,0.2,NE,39.1,-,0.01,Fog-Rain,Light Rain,50,2013-07-15 12:11:00
6:51 AM,57.9,57.9,100,29.88,0.2,NE,33.4,-,0.01,Fog-Rain,Light Rain,50,2013-07-15 12:51:00
7:15 AM,57.9,57.9,100,30.11,0.2,NE,36.8,-,0.01,Fog,Fog,50,2013-07-15 13:15:00
7:44 AM,57.9,57.9,100,30.13,1.2,NE,33.4,-,0.01,,Overcast,50,2013-07-15 13:44:00
7:51 AM,57.9,57.9,100,29.91,4.0,NE,28.8,-,0.01,,Overcast,50,2013-07-15 13:51:00
8:21 AM,57.9,57.9,100,30.15,1.8,NE,31.1,-,N/A,,Overcast,50,2013-07-15 14:21:00
8:36 AM,57.9,57.9,100,30.16,0.5,NE,27.6,-,N/A,Fog,Fog,50,2013-07-15 14:36:00
8:51 AM,57.9,57.9,100,29.95,1.2,NE,21.9,-,N/A,,Overcast,50,2013-07-15 14:51:00
8:58 AM,59.0,57.9,96,30.17,3.0,NE,23.0,-,N/A,,Overcast,50,2013-07-15 14:58:00
9:51 AM,59.0,57.9,96,29.97,4.0,NE,23.0,-,N/A,,Overcast,50,2013-07-15 15:51:00
10:15 AM,59.0,59.0,100,30.18,1.8,ENE,21.9,-,0.00,Rain,Light Rain,60,2013-07-15 16:15:00
10:20 AM,59.0,59.0,100,30.18,0.2,NE,23.0,28.8,0.00,Fog-Rain,Light Rain,50,2013-07-15 16:20:00
10:44 AM,59.0,59.0,100,30.18,0.2,NE,28.8,-,0.00,Fog-Rain,Light Rain,50,2013-07-15 16:44:00
10:51 AM,59.0,59.0,100,29.95,0.2,ENE,26.5,-,0.00,Fog-Rain,Light Rain,60,2013-07-15 16:51:00
11:00 AM,59.0,59.0,100,30.18,0.2,NE,29.9,-,0.00,Fog-Rain,Light Rain,50,2013-07-15 17:00:00
11:51 AM,57.0,57.0,100,29.96,0.2,NE,38.0,46.0,0.00,Fog-Rain,Light Rain,50,2013-07-15 17:51:00
12:51 PM,55.9,-9999,N/A,30.01,0.2,NE,39.1,-,0.00,Rain,Light Rain,50,2013-07-15 18:51:00
1:51 PM,55.9,55.9,100,30.03,0.2,ENE,28.8,35.7,0.00,Fog-Rain,Light Rain,60,2013-07-15 19:51:00
2:26 PM,57.0,57.0,100,30.18,1.0,ENE,33.4,-,0.00,,Mist,60,2013-07-15 20:26:00
2:32 PM,57.0,57.0,100,30.18,0.2,ENE,31.1,-,0.00,Fog-Rain,Light Rain,60,2013-07-15 20:32:00
2:51 PM,57.0,57.0,100,30.02,1.8,NE,29.9,-,0.00,,Overcast,50,2013-07-15 20:51:00
2:53 PM,57.0,57.0,100,30.18,3.0,NE,32.2,-,N/A,,Overcast,50,2013-07-15 20:53:00
3:11 PM,57.0,57.0,100,30.18,0.8,ENE,27.6,35.7,0.00,Rain,Light Rain,60,2013-07-15 21:11:00
3:20 PM,57.0,57.0,100,30.17,0.2,NE,29.9,34.5,0.00,Fog-Rain,Light Rain,50,2013-07-15 21:20:00
3:51 PM,57.0,57.0,100,30.01,0.2,ENE,27.6,38.0,0.00,Fog-Rain,Light Rain,60,2013-07-15 21:51:00
4:51 PM,55.9,55.9,100,30.00,0.2,NE,32.2,36.8,0.00,Fog-Rain,Light Rain,50,2013-07-15 22:51:00
5:00 PM,55.9,55.9,100,30.16,0.5,NE,28.8,38.0,0.00,Fog-Rain,Light Rain,50,2013-07-15 23:00:00
5:07 PM,55.9,55.9,100,30.15,2.0,NE,29.9,39.1,0.00,,Overcast,50,2013-07-15 23:07:00
5:15 PM,57.0,57.0,100,30.15,4.0,NE,29.9,36.8,0.00,,Overcast,50,2013-07-15 23:15:00
5:32 PM,57.0,57.0,100,30.15,5.0,NE,26.5,34.5,0.00,,Overcast,50,2013-07-15 23:32:00
5:51 PM,55.9,55.9,100,30.01,7.0,NE,28.8,-,0.00,,Overcast,50,2013-07-15 23:51:00
6:01 PM,57.0,57.0,100,30.15,7.0,NE,25.3,-,N/A,,Overcast,50,2013-07-16 00:01:00
6:51 PM,59.0,53.1,81,30.01,7.0,NE,23.0,-,N/A,,Clear,50,2013-07-16 00:51:00
7:51 PM,59.0,55.0,87,30.02,7.0,NE,21.9,-,N/A,,Clear,50,2013-07-16 01:51:00
8:51 PM,57.9,55.9,93,30.04,7.0,NE,23.0,-,N/A,,Mostly Cloudy,50,2013-07-16 02:51:00
9:51 PM,59.0,55.0,87,30.07,8.0,NE,17.3,-,N/A,,Mostly Cloudy,50,2013-07-16 03:51:00
10:51 PM,57.0,54.0,89,30.09,8.0,NE,15.0,-,N/A,,Partly Cloudy,50,2013-07-16 04:51:00
11:51 PM,57.0,53.1,87,30.09,8.0,NE,20.7,-,N/A,,Clear,50,2013-07-16 05:51:00